Temp
-5 -4 -5 -5 -4 -5 -4 -4 -5 -4 -4 -4 -3 -4 -4 -4 -4 -4 -4 -5 -5 -5 -5 -5 -5 -4 -4 -4 -5 -5 -5 -6 -6 -6 -6 -5 -6 -6 -6 -6 -6 -6 -6 -6 -6 -6 -6 -6 -6
-6 -7 -5 -5 -5 -5 -6 -5 -5 -4 -4 -4 -4 -4 -4 -4 -4 -4 -5 -5 -5 -5 -5 -5 -5 -5 -5 -5 -5 -5 -5 -6 -6 -6 -6 -6 -6 -6 -6 -6 -6 -6 -6 -6 -6 -6 -6 -6 -6
-5 -5 -5 -5 -6 -7 -5 -4 -4 -4 -4 -4 -4 -4 -4 -4 -4 -4 -4 -4 -5 -5 -5 -5 -5 -5 -5 -5 -5 -6 -6 -6 -6 -6 -6 -6 -6 -6 -6 -6 -6 -6 -6 -6 -6 -6 -6 -6 -6
-6 -5 -5 -8 -5 -5 -4 -4 -4 -4 -4 -4 -4 -4 -4 -4 -4 -5 -5 -4 -4 -5 -5 -6 -5 -5 -5 -6 -6 -6 -6 -6 -6 -6 -6 -6 -6 -6 -6 -6 -6 -6 -6 -6 -6 -6 -6 -6 -6
-5 -5 -6 -6 -5 -5 -4 -4 -4 -4 -3 -4 -4 -4 -4 -4 -4 -5 -4 -5 -4 -5 -5 -5 -5 -5 -5 -6 -6 -6 -6 -6 -7 -6 -6 -7 -7 -6 -6 -6 -6 -6 -6 -6 -6 -6 -6 -6 -6
-5 -6 -6 -7 -5 -5 -4 -5 -4 -4 -4 -4 -4 -4 -4 -4 -5 -5 -5 -5 -5 -5 -5 -5 -6 -6 -6 -6 -7 -7 -7 -7 -7 -6 -7 -7 -6 -6 -6 -6 -7 -6 -6 -6 -6 -6 -6 -6 -6
-7 -6 -7 -7 -5 -4 -4 -4 -4 -4 -4 -4 -4 -4 -4 -4 -4 -5 -5 -6 -5 -5 -5 -5 -6 -6 -6 -6 -7 -8 -7 -7 -7 -7 -7 -7 -7 -6 -6 -6 -6 -6 -7 -7 -6 -7 -6 -6 -6
-5 -6 -7 -7 -5 -4 -4 -4 -3 -3 -3 -4 -4 -4 -5 -4 -4 -4 -5 -5 -5 -6 -5 -5 -5 -6 -6 -6 -6 -6 -7 -7 -7 -7 -7 -6 -7 -6 -6 -6 -7 -7 -7 -7 -7 -7 -7 -7 -7
-6 -6 -7 -7 -5 -4 -4 -3 -3 -3 -3 -3 -4 -4 -4 -5 -5 -5 -4 -4 -5 -5 -5 -5 -5 -6 -5 -6 -6 -6 -6 -6 -6 -7 -8 -7 -7 -7 -7 -7 -7 -7 -7 -8 -7 -7 -8 -8 -8
-6 -7 -5 -5 -5 -4 -4 -4 -3 -3 -3 -3 -3 -4 -4 -4 -4 -4 -4 -4 -4 -5 -5 -6 -5 -6 -5 -5 -6 -5 -6 -7 -7 -7 -7 -8 -7 -7 -7 -8 -8 -8 -8 -8 -8 -7 -8 -8 -8
-7 -6 -4 -5 -4 -4 -4 -4 -3 -3 -3 -3 -3 -4 -4 -4 -4 -4 -4 -5 -5 -5 -4 -4 -5 -6 -6 -6 -5 -6 -6 -6 -6 -6 -6 -7 -7 -7 -8 -7 -7 -8 -8 -8 -7 -6 -7 -8 -8
-6 -4 -4 -4 -4 -4 -4 -4 -3 -3 -3 -3 -3 -3 -4 -4 -4 -4 -5 -5 -5 -5 -5 -6 -5 -5 -5 -6 -6 -6 -6 -7 -6 -7 -7 -7 -7 -7 -8 -8 -8 -8 -8 -8 -7 -6 -7 -7 -9
-6 -4 -4 -4 -4 -4 -4 -4 -4 -4 -4 -3 -3 -4 -4 -4 -4 -5 -5 -5 -5 -5 -5 -5 -5 -5 -5 -5 -6 -6 -6 -6 -7 -7 -7 -7 -7 -7 -7 -7 -7 -7 -7 -8 -7 -7 -7 -7 -8
-7 -6 -5 -4 -4 -3 -4 -4 -4 -4 -4 -3 -3 -4 -4 -5 -4 -4 -5 -4 -4 -4 -4 -5 -5 -5 -5 -5 -6 -6 -6 -6 -7 -7 -7 -7 -7 -7 -6 -6 -7 -7 -7 -7 -7 -8 -7 -7 -7
-7 -7 -6 -5 -4 -4 -3 -4 -4 -4 -4 -4 -3 -4 -4 -4 -4 -4 -4 -4 -4 -4 -4 -5 -5 -5 -5 -6 -6 -5 -6 -7 -6 -6 -6 -6 -7 -6 -7 -8 -7 -7 -7 -6 -7 -7 -7 -7 -6
-7 -7 -7 -6 -6 -4 -4 -5 -4 -4 -4 -4 -4 -4 -4 -4 -4 -4 -4 -4 -4 -4 -4 -4 -5 -5 -5 -6 -6 -6 -7 -7 -6 -7 -7 -7 -7 -6 -6 -7 -7 -6 -7 -6 -6 -6 -6 -6 -7
-7 -7 -6 -7 -7 -5 -5 -5 -4 -4 -4 -4 -4 -4 -4 -4 -4 -4 -4 -4 -4 -4 -4 -4 -4 -4 -5 -5 -5 -6 -6 -6 -6 -6 -6 -7 -6 -6 -6 -7 -7 -7 -6 -5 -5 -6 -6 -6 -6
-7 -7 -6 -7 -6 -6 -5 -5 -4 -4 -4 -4 -4 -4 -4 -4 -4 -3 -3 -4 -4 -4 -3 -4 -4 -4 -5 -5 -5 -5 -6 -6 -6 -6 -6 -6 -6 -6 -6 -5 -6 -5 -5 -6 -6 -6 -6 -6 -6
-7 -7 -6 -7 -5 -6 -6 -5 -5 -4 -3 -3 -3 -4 -4 -4 -4 -4 -4 -4 -4 -4 -4 -4 -5 -5 -5 -5 -6 -6 -6 -6 -6 -6 -6 -6 -6 -7 -6 -6 -6 -6 -6 -6 -6 -7 -7 -7 -7
-7 -7 -6 -7 -5 -6 -6 -5 -5 -4 -3 -4 -4 -3 -4 -4 -4 -4 -5 -4 -4 -4 -4 -4 -4 -4 -4 -5 -5 -6 -6 -6 -6 -6 -6 -6 -6 -7 -7 -7 -7 -7 -6 -6 -6 -6 -6 -6 -7
-7 -6 -6 -6 -5 -6 -7 -7 -4 -5 -4 -4 -4 -4 -4 -4 -4 -4 -4 -4 -4 -4 -4 -4 -4 -4 -4 -4 -5 -5 -5 -5 -5 -5 -6 -6 -6 -6 -6 -6 -7 -7 -7 -7 -6 -6 -7 -7 -7
-6 -6 -6 -6 -6 -6 -6 -6 -6 -4 -5 -4 -4 -4 -3 -3 -4 -4 -5 -4 -4 -4 -4 -4 -4 -5 -5 -5 -5 -5 -5 -5 -6 -6 -6 -6 -6 -6 -6 -6 -6 -6 -7 -7 -7 -7 -7 -7 -8
-7 -6 -6 -6 -6 -6 -6 -6 -6 -5 -4 -4 -3 -3 -3 -3 -3 -3 -4 -4 -4 -4 -4 -4 -4 -4 -4 -5 -5 -5 -6 -6 -6 -6 -6 -6 -6 -7 -6 -6 -7 -7 -7 -7 -8 -8 -7 -7 -7
-7 -7 -6 -6 -6 -5 -5 -5 -6 -6 -5 -4 -3 -3 -3 -3 -3 -4 -4 -4 -4 -4 -4 -4 -4 -4 -5 -5 -5 -5 -6 -6 -6 -6 -6 -7 -7 -6 -5 -7 -7 -8 -7 -8 -8 -8 -7 -8 -7
-7 -6 -6 -6 -6 -5 -4 -5 -6 -6 -6 -4 -3 -3 -3 -3 -4 -4 -4 -4 -4 -4 -4 -4 -4 -5 -5 -5 -5 -5 -5 -6 -6 -7 -7 -7 -7 -7 -7 -6 -7 -7 -8 -8 -8 -7 -7 -7 -7
-7 -6 -6 -6 -5 -4 -4 -4 -5 -6 -6 -5 -4 -4 -4 -4 -4 -4 -4 -4 -4 -4 -4 -4 -5 -5 -5 -5 -5 -6 -6 -7 -7 -7 -7 -7 -7 -7 -6 -7 -7 -8 -8 -7 -7 -7 -8 -8 -8
-7 -7 -6 -5 -4 -4 -5 -4 -5 -5 -6 -5 -6 -4 -4 -4 -4 -5 -5 -5 -5 -5 -5 -5 -5 -5 -6 -6 -6 -6 -7 -7 -7 -7 -7 -7 -7 -7 -7 -7 -7 -7 -7 -7 -7 -7 -8 -8 -8
-7 -7 -6 -6 -5 -4 -5 -4 -5 -5 -5 -5 -6 -6 -4 -5 -5 -5 -5 -5 -5 -5 -5 -5 -5 -6 -6 -7 -7 -7 -7 -7 -7 -7 -7 -7 -7 -7 -7 -7 -7 -7 -7 -7 -7 -8 -8 -8 -8
-6 -7 -6 -6 -6 -5 -5 -4 -4 -4 -4 -4 -5 -5 -5 -5 -5 -5 -5 -5 -5 -5 -5 -5 -6 -6 -7 -7 -7 -7 -7 -7 -7 -7 -8 -8 -7 -7 -7 -7 -7 -7 -7 -8 -8 -8 -8 -8 -8
-7 -6 -7 -6 -6 -5 -4 -5 -4 -5 -4 -5 -6 -5 -5 -5 -6 -6 -6 -5 -6 -5 -6 -6 -6 -6 -7 -7 -7 -7 -7 -7 -8 -8 -8 -8 -7 -7 -7 -7 -7 -8 -8 -8 -7 -8 -8 -8 -8
Height
5899 5899 5899 5901 5902 5894 5896 5891 5896 5899 5900 5900 5899 5899 5900 5900 5902 5902 5903 5903 5905 5906 5907 5911 5914 5916 5917 5918 5918 5919 5919 5920 5920 5920 5920 5920 5920 5920 5920 5920 5920 5920 5919 5919 5919 5918 5917 5916 5915
5900 5903 5903 5900 5906 5900 5900 5895 5898 5899 5901 5901 5902 5902 5902 5903 5904 5903 5906 5907 5907 5909 5909 5911 5914 5915 5918 5919 5919 5921 5921 5921 5921 5922 5922 5922 5923 5923 5922 5922 5922 5921 5921 5920 5919 5919 5919 5919 5917
5904 5903 5904 5901 5906 5906 5903 5901 5899 5901 5901 5903 5904 5904 5904 5904 5902 5905 5906 5909 5909 5911 5911 5912 5915 5917 5918 5920 5921 5921 5922 5922 5923 5923 5924 5924 5925 5924 5925 5924 5923 5923 5923 5922 5921 5920 5919 5920 5920
5907 5906 5904 5908 5906 5903 5902 5901 5901 5902 5903 5905 5906 5906 5906 5905 5905 5907 5909 5909 5908 5910 5913 5914 5916 5919 5920 5920 5921 5922 5923 5923 5923 5924 5924 5925 5925 5925 5925 5925 5924 5924 5924 5923 5922 5922 5921 5920 5920
5908 5905 5907 5911 5907 5905 5904 5904 5903 5904 5905 5906 5907 5907 5908 5907 5907 5908 5910 5912 5912 5913 5913 5915 5917 5919 5921 5922 5922 5923 5922 5922 5922 5923 5924 5925 5925 5925 5925 5927 5925 5924 5925 5925 5924 5923 5922 5922 5921
5907 5908 5911 5917 5910 5908 5907 5907 5907 5905 5906 5908 5910 5910 5910 5909 5910 5911 5912 5912 5914 5916 5915 5916 5917 5919 5920 5922 5923 5925 5924 5923 5923 5925 5924 5925 5926 5926 5926 5927 5927 5926 5926 5925 5925 5924 5924 5923 5922
5913 5913 5918 5920 5913 5911 5909 5908 5907 5908 5908 5909 5909 5910 5911 5911 5911 5912 5913 5914 5915 5916 5918 5918 5917 5917 5919 5921 5922 5923 5924 5923 5924 5924 5924 5924 5925 5926 5926 5927 5927 5928 5926 5925 5925 5924 5924 5923 5923
5899 5915 5925 5924 5915 5914 5912 5910 5909 5909 5908 5909 5910 5911 5911 5912 5912 5913 5914 5915 5916 5917 5919 5919 5919 5920 5922 5922 5922 5923 5923 5924 5924 5924 5924 5924 5923 5926 5927 5927 5928 5926 5926 5925 5923 5922 5921 5920 5921
5921 5923 5920 5919 5915 5915 5914 5913 5912 5911 5909 5909 5910 5910 5910 5911 5912 5912 5914 5915 5917 5917 5918 5920 5920 5922 5922 5922 5922 5922 5922 5924 5925 5925 5922 5925 5923 5924 5927 5928 5928 5927 5924 5923 5922 5921 5919 5919 5919
5919 5923 5920 5918 5917 5916 5916 5915 5914 5914 5912 5911 5911 5910 5910 5910 5912 5912 5914 5916 5917 5918 5919 5922 5923 5924 5924 5921 5921 5922 5922 5922 5923 5921 5894 5919 5924 5924 5925 5924 5924 5923 5923 5920 5920 5919 5917 5916 5919
5922 5921 5921 5921 5919 5919 5918 5917 5917 5915 5914 5914 5913 5912 5912 5911 5912 5913 5914 5915 5917 5919 5921 5923 5922 5922 5923 5921 5922 5924 5924 5920 5923 5926 5921 5923 5925 5925 5922 5910 5918 5920 5920 5919 5915 5903 5907 5915 5917
5923 5923 5923 5923 5922 5920 5920 5919 5918 5918 5917 5916 5915 5913 5912 5912 5913 5913 5915 5917 5918 5919 5921 5924 5923 5923 5918 5921 5923 5924 5922 5918 5922 5926 5926 5928 5926 5926 5923 5923 5924 5921 5922 5919 5917 5911 5899 5910 5909
5926 5925 5925 5925 5924 5922 5922 5921 5920 5919 5919 5918 5917 5915 5913 5914 5915 5916 5916 5918 5919 5920 5922 5923 5925 5925 5923 5923 5921 5917 5923 5925 5927 5926 5930 5929 5927 5927 5928 5926 5926 5925 5921 5918 5915 5914 5913 5915 5911
5927 5927 5926 5926 5927 5926 5924 5924 5923 5923 5921 5920 5919 5918 5917 5917 5917 5918 5919 5920 5921 5922 5923 5925 5927 5926 5924 5924 5926 5928 5929 5930 5931 5932 5933 5930 5928 5928 5928 5929 5928 5928 5926 5921 5918 5916 5916 5916 5917
5926 5928 5928 5927 5928 5928 5926 5926 5925 5924 5923 5922 5922 5921 5921 5921 5921 5922 5922 5924 5925 5926 5927 5928 5929 5929 5927 5927 5930 5930 5930 5932 5934 5933 5931 5930 5929 5929 5930 5924 5925 5923 5925 5925 5922 5921 5921 5920 5918
5924 5927 5928 5930 5929 5930 5930 5930 5929 5927 5926 5926 5926 5926 5925 5925 5925 5925 5926 5927 5928 5928 5929 5930 5932 5932 5933 5933 5933 5933 5934 5934 5934 5933 5932 5930 5929 5929 5928 5920 5908 5916 5918 5925 5923 5921 5920 5919 5917
5925 5926 5929 5930 5935 5933 5933 5933 5931 5930 5929 5928 5928 5929 5929 5929 5929 5931 5931 5931 5932 5932 5932 5934 5934 5935 5937 5938 5937 5936 5936 5937 5936 5935 5934 5932 5931 5930 5931 5925 5919 5916 5924 5924 5921 5920 5918 5916 5914
5923 5924 5926 5924 5936 5937 5935 5936 5934 5933 5932 5931 5931 5932 5933 5934 5934 5934 5934 5934 5935 5936 5937 5936 5937 5938 5939 5938 5937 5937 5938 5938 5936 5935 5933 5931 5928 5927 5928 5930 5930 5927 5925 5922 5920 5918 5917 5914 5913
5926 5925 5921 5935 5938 5935 5935 5937 5937 5934 5934 5933 5934 5934 5935 5936 5936 5936 5936 5937 5937 5937 5938 5938 5940 5940 5939 5937 5937 5939 5939 5938 5938 5937 5934 5931 5924 5922 5925 5926 5926 5925 5923 5920 5918 5915 5914 5912 5909
5924 5929 5938 5940 5940 5939 5939 5936 5938 5938 5936 5936 5936 5935 5936 5937 5937 5938 5938 5939 5938 5939 5940 5940 5941 5942 5942 5941 5940 5941 5941 5940 5939 5937 5936 5932 5928 5926 5926 5926 5925 5924 5922 5920 5917 5913 5911 5908 5906
5932 5940 5940 5941 5940 5941 5945 5942 5938 5939 5939 5938 5938 5937 5937 5937 5938 5939 5938 5939 5940 5941 5942 5943 5944 5945 5945 5944 5943 5943 5942 5941 5940 5938 5936 5934 5932 5930 5927 5925 5923 5921 5920 5917 5914 5911 5908 5905 5902
5936 5934 5939 5940 5940 5944 5944 5946 5941 5940 5940 5939 5939 5938 5938 5939 5940 5940 5939 5941 5942 5944 5945 5946 5946 5946 5946 5946 5945 5945 5944 5943 5941 5939 5938 5936 5934 5929 5924 5924 5922 5921 5917 5914 5912 5908 5904 5901 5899
5933 5938 5937 5939 5941 5943 5944 5943 5944 5940 5940 5941 5940 5941 5941 5942 5942 5943 5944 5944 5945 5946 5947 5948 5948 5948 5948 5948 5947 5947 5945 5943 5942 5940 5938 5935 5932 5926 5925 5922 5920 5916 5915 5909 5905 5903 5901 5897 5895
5930 5932 5935 5937 5940 5943 5945 5946 5943 5941 5941 5941 5941 5942 5943 5944 5946 5947 5948 5948 5948 5949 5950 5950 5951 5950 5949 5948 5948 5947 5945 5944 5942 5940 5938 5936 5933 5927 5916 5882 5916 5913 5909 5906 5903 5901 5896 5893 5889
5926 5931 5934 5937 5939 5942 5947 5945 5942 5944 5942 5943 5943 5943 5944 5945 5947 5948 5949 5950 5950 5951 5951 5951 5951 5951 5950 5950 5949 5947 5945 5943 5942 5940 5937 5935 5932 5926 5925 5921 5915 5909 5907 5903 5898 5896 5892 5888 5884
5921 5929 5933 5935 5939 5942 5945 5947 5945 5945 5944 5943 5944 5945 5946 5947 5948 5948 5949 5950 5951 5952 5952 5952 5951 5950 5950 5949 5948 5946 5945 5943 5940 5938 5936 5934 5931 5925 5919 5914 5909 5904 5902 5899 5896 5893 5888 5882 5877
5918 5921 5929 5933 5938 5943 5943 5946 5943 5945 5944 5944 5945 5944 5946 5947 5948 5948 5949 5950 5951 5952 5952 5951 5950 5950 5949 5948 5947 5945 5944 5941 5939 5937 5934 5931 5928 5924 5920 5915 5910 5907 5903 5899 5894 5889 5882 5876 5870
5909 5921 5922 5924 5930 5936 5941 5943 5943 5944 5943 5944 5946 5946 5946 5947 5948 5948 5948 5949 5950 5951 5951 5951 5950 5949 5948 5947 5945 5944 5942 5939 5937 5935 5933 5930 5926 5922 5918 5913 5909 5905 5900 5894 5887 5881 5875 5869 5862
5904 5908 5916 5923 5927 5932 5937 5938 5939 5939 5942 5942 5944 5946 5946 5947 5946 5946 5947 5948 5948 5950 5950 5949 5949 5948 5946 5945 5944 5943 5940 5938 5936 5934 5932 5927 5923 5917 5912 5908 5904 5899 5894 5888 5881 5875 5869 5862 5854
5897 5904 5911 5915 5920 5926 5933 5935 5938 5936 5938 5940 5942 5943 5945 5945 5945 5944 5945 5945 5947 5946 5947 5946 5946 5945 5944 5943 5942 5940 5939 5937 5936 5933 5929 5925 5920 5915 5909 5904 5899 5894 5889 5881 5874 5868 5861 5854 5846
Wind_Speed
12 11 15 11 14 22 13 16 9 4 2 4 1 2 5 6 2 11 15 21 21 26 26 24 17 17 17 17 17 16 16 14 13 11 10 11 11 10 10 9 9 9 10 11 11 12 13 13 15
16 15 14 19 17 13 17 7 4 3 3 4 2 2 5 4 8 6 11 18 17 19 21 20 19 18 16 16 16 15 14 13 11 10 9 9 8 6 6 6 6 7 8 9 10 11 12 12 13
10 10 7 16 9 1 10 2 2 5 3 4 5 3 0 6 13 10 9 9 17 14 13 18 17 15 16 15 15 14 12 11 10 9 7 5 5 3 2 4 5 5 6 7 9 10 12 12 13
17 14 21 12 2 5 3 1 2 2 5 5 4 4 3 4 5 8 12 9 13 11 13 16 14 13 13 14 14 12 11 10 9 8 7 6 3 3 2 1 3 3 4 6 7 8 9 10 11
24 28 22 17 6 5 4 3 2 2 4 6 7 6 5 5 7 5 12 9 7 3 2 10 12 11 10 12 12 12 11 10 9 7 8 5 5 4 1 3 1 2 4 5 7 7 7 8 9
22 31 26 13 9 5 3 1 2 3 4 6 8 6 5 5 6 6 8 5 2 2 4 6 9 9 11 12 11 10 10 8 8 6 7 6 5 4 2 1 2 2 4 4 6 7 7 8 9
18 29 11 3 8 5 6 1 1 3 3 6 7 5 4 6 7 9 8 3 5 1 2 6 1 8 7 6 9 12 12 9 9 10 8 8 6 4 4 3 2 3 4 4 8 7 8 11 9
21 24 8 3 3 6 5 6 2 2 4 4 6 7 6 7 8 8 9 13 15 8 2 4 6 8 8 5 4 3 9 8 11 10 9 8 7 5 4 7 6 5 8 8 10 8 7 9 11
17 6 5 10 6 7 8 9 8 7 5 3 5 7 7 8 9 9 10 9 8 6 5 4 7 10 7 8 5 7 6 3 10 10 11 8 7 6 7 8 10 14 9 13 11 12 11 15 13
22 5 8 7 6 6 6 8 9 10 9 7 4 2 6 8 8 9 9 9 6 4 8 6 5 9 3 6 8 8 7 7 10 10 12 12 5 6 9 10 10 13 16 17 19 20 17 12 12
10 6 5 4 5 6 7 8 7 9 9 6 3 4 4 6 8 8 8 6 6 2 3 4 3 8 6 6 7 9 3 4 9 8 9 3 9 9 13 12 3 10 17 17 14 13 9 7 9
10 4 3 2 3 8 9 8 7 8 9 7 3 3 4 3 5 7 7 6 5 6 5 7 11 9 3 4 7 8 10 2 12 5 5 8 9 6 9 12 9 9 13 11 12 8 12 10 13
9 2 2 1 2 8 10 10 8 7 6 7 5 6 7 6 6 6 6 6 5 5 7 11 12 9 7 4 5 12 7 2 4 8 3 3 4 0 3 2 4 2 7 14 16 9 12 8 13
4 2 1 0 3 3 10 10 10 8 6 7 8 8 8 9 10 11 10 9 7 6 9 10 9 10 8 12 11 11 10 10 8 6 6 7 8 8 7 7 7 10 8 8 11 8 9 9 9
12 2 1 6 4 2 8 10 10 10 9 9 10 12 12 12 12 13 14 14 14 15 16 14 12 14 14 15 13 15 15 10 7 7 7 7 8 10 8 7 6 6 9 9 9 9 7 10 11
16 11 9 2 8 3 7 5 7 10 11 11 10 12 15 16 16 17 17 17 18 18 19 19 18 17 17 14 15 14 12 10 8 6 5 6 9 7 6 7 18 9 10 11 9 10 13 12 11
8 14 14 12 2 4 3 2 6 8 10 13 14 13 13 14 17 17 18 18 19 19 19 17 17 16 14 10 7 7 7 8 11 12 12 13 14 13 11 13 12 11 7 10 10 12 11 10 12
7 12 18 18 5 5 4 2 6 9 10 12 13 13 13 14 14 14 15 14 15 15 14 15 15 15 14 8 2 5 8 10 11 14 16 18 19 16 10 10 12 12 14 16 16 15 16 18 19
15 10 9 7 6 10 8 3 3 8 9 10 12 13 13 12 11 11 11 12 13 15 15 15 15 13 17 17 8 7 8 9 12 16 17 21 19 14 12 11 13 16 16 16 18 19 19 21 23
10 18 9 4 2 11 4 5 8 5 6 8 9 12 13 12 12 12 10 11 12 14 14 16 16 17 17 20 20 14 11 11 14 18 20 23 25 19 11 11 13 16 19 21 22 22 22 26 26
3 8 8 12 10 14 5 7 9 8 3 3 6 10 12 12 14 13 10 9 11 12 13 14 13 12 13 16 17 15 13 14 16 18 20 22 24 22 18 15 12 14 17 19 20 21 23 24 27
13 13 11 8 8 5 4 10 17 9 7 3 4 6 10 10 10 15 16 15 13 12 12 11 9 10 12 14 14 14 13 14 16 18 19 19 19 18 18 19 19 20 20 20 22 24 25 24 24
19 14 12 9 7 2 5 7 8 15 9 2 4 7 8 8 11 12 15 19 14 12 9 9 7 7 9 11 11 12 13 14 16 17 19 20 20 19 21 23 18 21 23 24 26 28 30 31 31
16 15 19 14 8 7 6 14 11 12 12 2 5 8 6 6 7 7 9 8 10 9 7 4 5 6 8 11 11 12 12 13 16 19 21 21 21 21 31 10 31 24 25 27 28 30 32 34 33
22 17 10 12 11 8 8 11 14 14 17 4 5 7 6 4 1 3 5 4 4 3 3 5 6 7 7 9 11 13 14 16 19 22 24 26 27 28 28 31 33 30 28 29 30 31 30 31 32
28 23 18 14 10 8 7 13 16 11 13 7 6 7 7 6 3 3 5 2 2 3 4 6 8 10 11 13 14 14 16 19 23 27 30 32 33 33 34 35 34 29 33 32 30 31 33 35 37
28 30 24 17 10 13 14 13 14 11 9 9 12 9 7 7 4 3 3 6 7 6 6 8 10 11 12 14 15 15 18 20 24 29 31 32 30 31 31 31 30 30 30 29 31 33 35 38 41
35 25 29 28 24 22 15 18 15 24 23 16 14 16 12 7 5 3 4 5 9 11 10 10 10 12 14 15 17 15 18 21 25 28 31 28 28 29 29 28 27 28 27 29 32 35 38 41 44
39 35 29 24 22 17 16 14 16 18 23 20 13 13 14 9 7 8 8 8 10 11 12 11 11 12 13 15 16 16 18 22 26 26 27 29 30 31 29 27 26 26 28 32 35 38 41 45 48
31 38 29 33 29 22 22 16 17 20 19 17 22 19 15 13 10 12 12 13 12 15 17 16 14 13 13 16 19 18 18 20 21 24 29 32 34 32 28 27 29 31 34 37 40 41 45 49 53
Wind_Direction
80 91 95 86 69 28 330 17 139 147 218 153 150 271 186 153 172 182 167 155 150 147 136 128 127 126 122 127 125 124 129 129 130 130 128 120 116 112 109 100 93 85 78 71 65 55 51 52 56
89 102 104 73 61 55 299 316 75 181 182 179 111 102 117 253 226 133 137 136 135 134 126 129 135 129 130 129 131 132 135 138 141 143 139 125 116 115 107 99 86 74 65 57 52 46 41 36 44
114 116 107 77 2 319 248 239 176 194 202 178 190 169 210 103 140 107 147 159 141 121 104 122 130 134 135 139 141 139 145 145 148 149 144 132 133 133 120 98 77 60 41 40 36 35 36 27 26
83 91 55 20 112 17 36 147 197 183 192 176 163 165 130 102 117 117 126 99 180 103 103 122 129 141 145 148 148 151 150 151 153 156 144 123 203 184 186 127 74 39 24 19 15 27 28 20 20
85 59 95 335 7 16 40 83 176 171 188 178 166 164 144 144 129 148 146 166 144 107 99 114 129 146 161 159 158 169 158 161 160 156 142 180 214 196 194 300 344 359 352 356 350 358 10 5 0
96 64 42 310 15 13 23 47 91 203 171 174 170 183 172 166 154 145 150 150 127 40 69 96 148 158 171 167 173 182 173 163 151 171 173 192 198 176 160 270 324 354 5 351 339 337 344 342 338
78 74 70 355 13 26 29 112 213 159 177 194 199 197 196 174 177 186 204 227 240 125 101 27 333 196 205 157 164 189 196 181 180 184 197 191 187 181 168 204 250 307 336 333 316 318 325 320 322
15 70 73 359 346 68 66 58 53 186 186 186 196 185 198 203 199 197 205 201 230 267 268 51 94 105 60 88 88 129 178 183 196 197 196 208 198 227 271 288 279 259 280 274 286 282 293 304 313
64 58 213 198 114 87 81 76 77 76 78 110 205 207 201 214 214 215 214 213 232 263 213 168 108 87 54 34 86 109 130 170 200 200 203 215 218 237 273 284 288 303 283 278 280 277 272 286 282
97 258 236 156 124 104 93 87 86 91 77 70 83 167 217 222 213 215 220 217 193 203 153 59 65 67 68 108 112 105 127 166 181 205 212 183 231 252 267 270 282 300 294 285 286 281 274 281 285
75 226 179 168 134 122 108 106 108 89 78 59 73 144 174 189 207 201 203 191 187 131 170 83 78 109 135 130 129 86 48 194 177 190 260 277 231 258 274 274 335 301 298 307 304 292 243 285 294
278 178 170 135 144 118 105 98 81 87 80 67 58 111 155 173 164 186 178 153 159 137 111 106 97 95 149 175 150 111 183 222 107 172 219 251 263 292 282 312 317 330 312 327 328 326 13 45 306
288 357 70 151 135 117 109 103 91 74 80 78 73 93 98 100 107 121 136 138 152 131 114 95 88 100 138 134 157 101 73 120 55 59 46 30 348 225 255 70 15 11 342 1 359 359 20 23 353
108 257 96 78 104 107 101 99 94 87 78 79 67 73 86 94 94 97 106 110 100 92 86 95 95 72 84 91 70 69 76 77 77 63 50 44 21 8 13 13 7 342 330 348 10 45 15 5 355
111 265 103 139 127 135 101 90 92 88 86 84 75 73 82 89 91 93 94 95 94 94 96 97 90 92 90 87 92 84 78 87 92 81 70 48 24 15 349 328 343 13 340 328 351 350 360 352 344
203 194 137 93 82 271 329 76 97 91 94 105 96 90 86 88 92 94 98 100 99 96 96 91 89 87 87 98 97 80 79 79 81 73 43 7 0 17 49 313 325 7 15 342 327 331 341 357 339
224 200 144 103 229 315 57 100 119 103 97 95 94 97 104 101 99 101 99 97 95 93 93 93 88 85 89 92 97 92 81 49 29 20 4 346 337 336 338 324 336 357 338 328 335 329 327 325 319
154 67 114 104 40 83 345 19 131 118 107 101 102 101 97 100 105 104 103 103 96 93 87 81 76 71 59 44 54 64 43 30 18 8 349 333 313 302 307 316 317 324 330 333 333 331 323 321 321
124 171 99 31 320 188 187 169 18 98 102 108 111 106 105 108 106 106 105 100 92 83 76 77 78 61 49 44 65 67 45 25 11 5 9 2 350 311 288 306 313 318 319 326 328 329 332 330 317
129 99 162 169 332 144 336 308 46 36 86 102 110 111 106 100 89 80 85 87 88 85 82 76 64 62 60 62 73 73 55 32 20 10 14 20 28 29 6 325 317 317 317 315 317 316 313 311 319
207 158 176 232 114 120 211 261 8 19 38 85 113 114 105 92 72 58 53 89 91 94 90 86 77 69 60 59 58 55 43 27 15 9 9 11 13 16 12 11 349 336 330 337 332 323 315 310 315
173 211 169 228 143 245 231 219 284 6 358 11 89 101 101 96 67 47 79 94 99 93 90 82 74 58 48 43 37 32 25 18 10 8 10 10 8 360 350 354 352 343 337 336 328 323 318 317 317
183 222 244 234 209 191 244 213 243 299 348 250 108 101 100 98 79 65 99 100 91 94 83 76 53 31 30 29 21 19 14 11 12 10 6 10 11 355 353 349 339 341 334 333 329 325 320 319 318
211 186 198 213 204 228 213 242 209 265 326 276 129 118 114 103 99 103 122 107 93 86 81 70 27 15 15 13 9 9 10 10 6 4 2 2 357 348 335 333 318 343 339 334 330 326 323 322 321
201 210 232 231 218 210 216 251 273 205 277 280 188 157 145 136 148 148 139 118 104 87 59 22 10 10 10 6 5 1 5 6 5 6 2 0 354 344 346 331 337 342 334 334 331 326 325 322 318
204 208 219 220 202 201 231 213 250 204 252 251 202 190 174 156 145 193 182 196 27 3 11 8 8 4 359 353 353 359 3 6 6 359 353 348 344 340 339 336 335 336 330 329 325 323 322 321 319
212 212 206 199 210 221 227 203 262 206 241 192 222 223 212 203 176 106 263 293 301 291 307 332 339 336 337 344 349 350 3 10 7 1 353 346 342 337 332 327 327 321 321 323 322 322 318 318 319
202 221 205 201 215 218 229 236 215 218 238 234 203 221 219 235 235 206 249 286 304 304 305 310 315 318 323 333 339 345 351 355 351 349 348 343 338 333 327 321 318 321 322 323 322 318 319 318 318
204 195 218 212 214 218 239 224 238 256 250 234 224 215 233 226 262 265 275 286 289 296 302 302 299 301 311 322 323 329 340 341 337 338 346 344 342 333 326 323 323 323 322 323 319 322 323 324 321
219 206 206 205 192 210 221 250 230 240 263 221 210 225 224 242 253 275 279 289 301 301 306 304 298 296 302 309 315 317 324 329 331 333 337 341 340 333 326 325 325 326 329 323 325 325 325 324 322